Date,TemperatureHighF,TemperatureAvgF,TemperatureLowF,DewpointHighF,DewpointAvgF,DewpointLowF,HumidityHigh,HumidityAvg,HumidityLow,PressureMaxIn,PressureMinIn,WindSpeedMaxMPH,WindSpeedAvgMPH,GustSpeedMaxMPH,PrecipitationSumIn
2013-1-1,17.9,9.6,-0.7,2.9,-0.0,-6.3,83,65,49,30.56,30.40,25,7,28,0.00
2013-1-2,18.2,8.9,-2.4,3.2,-2.2,-9.2,77,61,42,30.64,30.43,14,4,15,0.00
2013-1-3,27.3,8.3,-4.0,7.7,-2.2,-10.1,78,63,41,30.76,30.63,6,1,7,0.00
2013-1-4,30.3,15.5,5.7,9.7,3.7,-2.3,79,61,36,30.68,30.39,3,1,3,0.00
2013-1-5,32.0,18.8,6.5,7.9,0.8,-4.5,68,46,31,30.58,30.40,24,4,30,0.00
2013-1-6,42.0,31.0,15.1,8.4,1.1,-4.1,46,28,21,30.52,29.95,25,7,27,0.00
2013-1-7,38.1,31.0,24.7,15.1,3.7,-0.2,62,32,22,30.00,29.76,21,8,28,0.00
2013-1-8,31.6,26.8,23.8,17.6,15.8,14.3,71,63,52,30.40,29.81,34,14,45,0.00
2013-1-9,46.8,34.0,17.0,18.4,13.3,8.5,80,44,26,30.43,30.02,30,10,34,0.00
2013-1-10,41.9,35.9,24.8,16.2,8.7,4.1,57,33,22,30.01,29.40,15,9,23,0.00
2013-1-11,29.2,17.2,6.7,21.0,7.0,-2.9,83,64,54,29.87,29.23,21,9,34,0.02
2013-1-12,6.5,0.8,-5.4,-3.0,-6.8,-12.9,77,70,56,30.34,29.88,10,2,13,0.00
2013-1-13,3.0,-6.1,-15.7,-6.4,-12.7,-21.5,79,73,60,30.60,30.36,7,1,9,0.00
2013-1-14,5.4,-4.9,-16.8,-6.9,-15.0,-23.0,76,62,50,30.70,30.58,18,4,32,0.00
2013-1-15,24.5,13.9,-1.5,15.4,2.7,-15.1,74,61,49,30.61,30.49,24,11,30,0.00
2013-1-16,35.1,23.3,12.5,18.3,12.4,6.1,82,63,49,30.56,30.41,28,11,36,0.00
2013-1-17,43.1,25.8,10.7,18.9,8.8,4.0,77,51,29,30.68,30.37,13,4,40,0.00
2013-1-18,39.4,31.2,24.6,11.4,6.6,3.6,44,35,28,30.37,30.14,16,8,19,0.00
2013-1-19,39.0,31.4,25.4,8.2,5.6,3.7,44,33,25,30.31,30.09,32,16,56,0.00
2013-1-20,38.2,29.2,22.4,8.9,5.1,1.8,48,36,27,30.31,30.16,17,6,24,0.00
2013-1-21,38.0,29.4,20.1,13.3,7.8,4.8,54,41,29,30.28,30.19,18,8,37,0.00
2013-1-22,43.8,35.3,27.9,5.7,2.0,-4.5,37,25,18,30.26,30.11,23,10,47,0.00
2013-1-23,49.6,37.7,29.4,11.8,3.9,-5.4,46,24,18,30.25,30.13,14,8,27,0.00
2013-1-24,43.7,34.1,23.6,27.7,19.0,6.8,85,56,29,30.18,29.89,22,9,29,0.04
2013-1-25,39.0,35.0,32.8,27.2,24.6,22.7,71,66,58,30.14,29.98,25,10,38,0.00
2013-1-26,42.0,36.5,31.5,26.8,25.5,24.0,78,65,50,29.99,29.69,15,5,16,0.00
2013-1-27,41.9,33.4,26.1,27.4,23.2,18.9,87,68,45,29.75,29.66,12,4,19,0.00
2013-1-28,33.1,24.2,12.0,24.4,14.5,-0.3,87,67,54,29.77,29.59,24,8,28,0.00
2013-1-29,18.5,11.0,2.4,1.3,-2.3,-5.8,69,55,41,30.22,29.77,18,8,22,0.00
2013-1-30,23.5,16.6,6.5,19.6,9.1,-2.9,92,72,63,30.21,30.06,33,13,49,0.12
2013-1-31,26.0,23.7,21.6,18.5,16.7,14.9,85,74,65,30.24,30.08,25,15,39,0.11
2013-2-1,27.9,24.6,22.9,21.3,18.4,15.6,89,77,69,30.27,30.15,22,10,30,0.19
2013-2-2,36.4,26.8,19.0,15.5,13.0,8.6,75,57,40,30.45,30.27,32,16,37,0.00
2013-2-3,38.8,27.0,13.9,12.3,8.5,5.0,74,47,31,30.36,30.05,23,7,23,0.00
2013-2-4,36.7,27.0,17.3,16.3,11.3,4.8,63,52,39,30.11,29.94,16,9,28,0.00
2013-2-5,41.9,32.2,21.1,24.5,17.8,12.2,68,56,45,30.11,29.83,17,8,26,0.00
2013-2-6,39.0,31.5,21.6,25.3,17.7,12.0,72,57,42,30.08,29.75,15,8,28,0.00
2013-2-7,36.4,24.8,7.7,12.8,4.9,-0.8,79,46,24,30.27,30.08,15,6,18,0.00
2013-2-8,42.4,28.5,10.9,14.2,7.0,-1.3,63,41,27,30.13,29.76,10,4,11,0.00
2013-2-9,27.2,20.9,11.3,20.5,16.0,6.9,88,81,55,29.78,29.57,5,1,6,0.38
2013-2-10,20.0,11.5,-2.5,10.9,5.5,-7.2,84,77,61,30.29,29.75,7,1,8,0.00
2013-2-11,17.5,5.8,-6.4,9.5,-2.8,-11.7,82,68,45,30.43,30.29,20,3,20,0.00
2013-2-12,28.0,15.6,1.9,8.0,1.8,-9.2,68,54,41,30.43,30.30,27,7,33,0.00
2013-2-13,27.6,22.0,15.8,15.6,12.3,6.8,76,66,58,30.32,30.13,37,17,49,0.00
2013-2-14,28.0,19.0,11.3,15.8,11.2,7.0,83,72,56,30.41,30.11,23,9,34,0.00
2013-2-15,25.4,19.7,8.1,11.7,8.3,3.5,83,62,46,30.56,30.40,25,9,31,0.00
2013-2-16,37.9,29.0,20.2,16.6,12.0,9.3,67,50,38,30.45,30.02,24,11,29,0.00
2013-2-17,38.5,29.2,17.0,16.5,9.2,3.4,68,44,30,30.00,29.63,20,10,27,0.00
2013-2-18,20.0,16.7,12.0,9.1,4.7,-1.0,72,59,45,30.26,29.82,16,7,20,0.00
2013-2-19,39.8,23.8,12.6,9.7,1.8,-4.8,59,40,20,30.26,29.86,19,5,20,0.00
2013-2-20,40.8,23.8,13.9,17.3,9.6,2.2,88,57,27,29.85,29.65,12,2,13,0.00
2013-2-21,19.4,15.1,5.9,14.6,10.9,1.5,90,83,69,30.07,29.71,10,2,12,0.04
2013-2-22,23.0,16.3,7.0,8.4,4.3,1.4,82,59,46,30.17,29.98,38,10,51,0.00
2013-2-23,30.7,21.3,14.6,17.0,10.7,4.1,85,64,50,30.00,29.78,41,13,60,0.00
2013-2-24,24.2,15.2,0.8,16.7,7.5,-3.8,85,72,56,30.31,29.84,16,5,20,0.06
2013-2-25,33.9,16.9,-0.9,15.9,4.3,-5.9,89,59,34,30.36,30.07,18,4,21,0.00
2013-2-26,21.9,17.6,7.3,13.2,7.0,0.7,75,63,56,30.37,29.92,22,7,24,0.00
2013-2-27,24.0,13.9,0.6,5.7,1.3,-4.6,81,58,38,30.54,30.37,29,11,40,0.00
2013-2-28,27.6,20.6,9.5,13.8,7.6,0.1,70,57,38,30.53,30.38,34,17,44,0.00
2013-3-1,38.7,29.1,21.1,23.1,17.6,9.5,76,62,45,30.47,30.38,29,10,40,0.00
2013-3-2,43.8,34.9,28.8,24.3,21.4,17.1,71,58,42,30.39,30.00,34,16,41,0.00
2013-3-3,39.8,35.5,31.7,27.4,22.5,17.4,83,60,42,30.00,29.63,17,10,36,0.02
2013-3-4,31.5,19.4,4.4,20.5,7.6,-2.7,81,60,45,30.39,29.63,20,9,40,0.00
2013-3-5,43.1,24.1,2.4,7.7,1.5,-3.0,81,42,16,30.50,30.27,13,5,23,0.00
2013-3-6,48.9,36.3,17.3,18.5,11.9,0.0,62,38,24,30.27,29.81,15,7,24,0.00
2013-3-7,49.2,39.5,26.4,24.4,17.7,14.2,73,43,27,29.88,29.78,16,7,22,0.00
2013-3-8,49.3,34.7,25.2,26.0,18.2,12.1,82,54,27,29.89,29.63,14,4,17,0.00
2013-3-9,33.4,26.6,18.0,24.0,17.6,8.2,83,69,56,30.17,29.59,21,6,26,0.00
2013-3-10,40.6,27.2,11.2,17.0,11.0,1.1,80,52,31,30.32,30.15,19,7,27,0.00
2013-3-11,30.6,26.7,21.8,25.2,18.7,12.6,89,73,53,30.19,29.95,29,10,41,0.27
2013-3-12,38.6,24.4,14.0,24.8,18.3,10.8,89,79,54,30.39,30.19,15,3,27,0.02
2013-3-13,47.4,39.2,31.7,26.9,24.1,20.8,72,55,37,30.33,30.20,21,9,29,0.00
2013-3-14,54.2,44.2,35.5,24.5,21.9,18.9,55,42,29,30.25,30.05,15,7,24,0.00
2013-3-15,54.4,46.0,31.3,26.1,22.1,16.6,65,40,26,30.05,29.79,22,9,32,0.00
2013-3-16,46.4,37.8,28.1,30.6,18.7,5.6,76,48,26,29.83,29.70,16,6,22,0.00
2013-3-17,36.4,29.5,17.0,22.8,11.0,-1.5,82,46,32,29.88,29.47,20,10,44,0.00
2013-3-18,28.6,21.6,13.9,14.9,7.7,2.0,67,55,42,30.08,29.87,13,7,20,0.00
2013-3-19,34.7,26.0,16.0,8.9,1.4,-2.9,56,36,22,30.36,30.04,20,10,30,0.00
2013-3-20,43.7,29.1,13.0,26.7,12.5,-2.4,84,53,24,30.35,29.83,18,8,28,0.04
2013-3-21,34.1,29.2,17.5,27.9,19.5,7.4,88,67,50,29.87,29.53,23,7,35,0.07
2013-3-22,25.1,19.1,13.6,11.5,5.5,-0.6,77,56,35,30.04,29.82,14,6,22,0.00
2013-3-23,14.2,9.1,0.7,8.6,3.7,-4.3,84,78,66,30.43,30.03,13,4,14,0.11
2013-3-24,17.6,9.8,0.8,6.4,-0.4,-6.1,82,64,45,30.50,30.38,16,5,18,0.00
2013-3-25,22.5,10.8,-4.5,8.5,0.9,-9.3,80,65,48,30.58,30.48,7,2,9,0.00
2013-3-26,38.6,25.1,5.0,26.6,14.8,-1.7,79,65,47,30.50,30.13,12,4,19,0.00
2013-3-27,46.7,34.6,22.8,25.7,22.1,16.8,82,62,33,30.14,30.03,11,4,18,0.00
2013-3-28,53.0,38.6,24.4,27.0,21.6,18.0,82,55,27,30.13,30.04,10,4,14,0.00
2013-3-29,49.8,40.8,28.9,30.9,25.8,22.5,79,56,37,30.08,29.96,16,6,20,0.00
2013-3-30,46.8,37.6,24.7,31.7,23.7,15.6,80,58,42,30.14,29.96,21,11,32,0.04
2013-3-31,54.0,38.8,21.2,20.3,15.7,12.2,72,43,21,30.15,29.98,20,8,30,0.00
2013-4-1,47.9,35.2,23.7,31.1,24.6,15.9,92,67,41,30.03,29.90,12,3,17,0.06
2013-4-2,34.2,31.6,28.4,30.5,28.6,25.3,94,89,83,30.13,29.96,9,2,10,0.00
2013-4-3,53.9,36.9,20.7,30.4,23.0,15.9,89,62,25,30.21,30.08,21,5,22,0.00
2013-4-4,56.2,43.0,32.3,29.5,25.7,22.7,78,53,29,30.13,29.91,15,5,21,0.00
2013-4-5,55.0,41.0,31.8,35.3,26.0,20.7,82,57,33,29.91,29.61,21,6,28,0.03
2013-4-6,46.3,37.4,29.4,30.6,24.6,21.1,88,61,40,29.88,29.77,21,7,42,0.00
2013-4-7,45.9,36.4,31.2,30.7,26.6,23.5,89,68,46,29.85,29.64,21,7,23,0.06
2013-4-8,49.5,33.1,14.7,29.8,23.6,9.4,90,70,40,29.78,29.45,22,6,27,0.11
2013-4-9,14.0,6.8,0.9,8.4,1.7,-4.1,85,79,73,30.48,29.80,9,4,12,0.06
2013-4-10,28.8,14.7,-0.7,18.1,7.2,-5.6,82,73,48,30.51,30.15,26,5,34,0.00
2013-4-11,40.5,32.6,25.2,26.4,22.1,17.8,89,66,47,30.14,29.87,25,12,31,0.01
2013-4-12,43.0,32.5,25.1,27.0,21.4,13.9,90,66,31,29.95,29.84,20,4,29,0.01
2013-4-13,45.6,35.2,23.8,30.7,21.5,14.0,92,60,33,29.88,29.44,20,7,26,0.43
2013-4-14,27.4,22.4,15.8,18.6,9.6,3.9,83,59,39,29.89,29.47,15,7,28,0.03
2013-4-15,23.5,19.7,14.3,17.9,15.0,10.9,92,82,64,30.10,29.81,9,3,12,0.13
2013-4-16,27.2,19.5,13.2,22.2,15.4,9.8,88,84,74,30.15,29.94,11,5,12,0.76
2013-4-17,18.4,14.0,5.7,15.4,9.3,0.7,88,82,74,30.38,30.06,13,4,13,0.15
2013-4-18,25.9,15.6,3.0,13.0,5.2,-1.8,82,64,42,30.46,30.36,18,6,27,0.01
2013-4-19,35.5,27.8,18.7,22.1,17.8,11.2,76,66,54,30.43,30.02,28,11,32,0.00
2013-4-20,43.2,34.5,29.5,29.1,25.1,21.8,89,69,48,30.03,29.91,21,6,31,0.03
2013-4-21,43.1,36.2,30.8,27.3,23.0,17.2,81,60,41,30.06,29.93,12,6,28,0.00
2013-4-22,34.6,22.9,12.9,28.1,18.3,9.1,89,82,67,30.30,29.86,15,5,16,0.18
2013-4-23,28.1,16.8,5.4,12.7,8.2,1.1,86,70,48,30.44,30.30,12,3,17,0.01
2013-4-24,38.6,28.8,10.0,13.9,9.3,5.1,81,46,31,30.41,30.25,22,10,35,0.00
2013-4-25,50.5,38.4,22.5,22.1,11.9,3.5,63,35,22,30.25,29.94,18,6,23,0.00
2013-4-26,52.3,37.8,24.4,25.8,19.1,13.6,70,49,29,30.25,30.03,12,3,15,0.00
2013-4-27,59.3,48.2,30.9,23.5,18.7,13.0,65,32,22,30.25,29.91,17,7,23,0.00
2013-4-28,62.3,50.7,38.6,33.0,26.0,19.2,56,39,27,29.91,29.69,22,8,28,0.00
2013-4-29,60.8,48.5,30.1,26.6,23.9,18.3,78,42,24,29.74,29.42,19,8,32,0.00
2013-4-30,52.9,41.8,29.5,32.2,28.7,24.5,92,63,37,29.85,29.43,16,6,23,0.33
2013-5-1,29.2,21.7,12.3,26.7,18.4,8.7,92,87,83,30.73,29.86,8,2,10,0.12
2013-5-2,39.3,24.3,7.2,22.3,11.7,3.4,87,62,35,30.93,30.58,17,5,22,0.00
2013-5-3,53.3,41.3,30.3,26.9,17.0,9.2,69,39,23,30.57,30.00,21,9,25,0.00
2013-5-4,47.3,39.1,34.7,29.0,26.2,22.8,73,60,40,30.13,29.98,14,6,22,0.00
2013-5-5,50.4,38.0,28.7,34.3,26.7,20.3,77,64,41,30.13,30.00,11,3,11,0.00
2013-5-6,54.0,43.2,31.6,37.5,31.2,26.5,86,64,45,30.00,29.85,14,3,18,0.04
2013-5-7,56.6,43.6,32.9,35.5,31.9,27.7,86,66,35,29.92,29.81,16,4,20,0.00
2013-5-8,51.0,40.0,30.6,38.5,33.8,27.7,91,79,51,30.06,29.88,19,4,21,0.28
2013-5-9,53.8,41.1,32.7,37.5,34.0,30.3,92,77,47,30.16,30.06,15,3,21,0.12
2013-5-10,55.8,44.3,30.2,37.5,29.5,24.7,93,60,33,30.29,30.13,15,5,18,0.00
2013-5-11,60.8,47.2,31.0,34.0,28.4,22.5,92,53,27,30.30,30.13,14,5,19,0.00
2013-5-12,68.1,54.8,39.0,35.9,30.8,26.6,62,42,26,30.16,29.93,14,6,16,0.00
2013-5-13,72.9,60.1,42.7,39.3,34.0,30.2,66,39,24,29.98,29.79,15,7,18,0.00
2013-5-14,73.4,61.3,45.4,38.6,33.2,28.8,57,37,23,29.79,29.63,20,7,23,0.00
2013-5-15,67.4,54.2,43.4,47.5,38.4,33.1,81,57,32,29.71,29.65,21,5,31,0.04
2013-5-16,68.6,56.1,46.5,41.3,36.0,28.1,82,49,24,29.69,29.58,16,7,19,0.00
2013-5-17,70.0,55.2,39.2,36.9,29.4,19.8,80,43,18,29.68,29.60,11,5,21,0.00
2013-5-18,59.1,46.5,38.6,34.9,29.9,19.5,74,54,28,29.74,29.62,23,7,33,0.00
2013-5-19,48.6,41.9,36.7,35.6,31.8,28.1,88,68,51,29.81,29.69,26,14,35,0.06
2013-5-20,49.4,41.5,35.7,38.6,31.8,23.6,91,70,53,29.98,29.79,16,7,27,0.01
2013-5-21,54.5,42.1,27.6,33.2,27.5,21.8,79,57,41,30.00,29.87,16,6,23,0.00
2013-5-22,64.2,51.8,38.9,37.8,33.3,28.4,75,51,31,29.88,29.68,16,6,16,0.00
2013-5-23,73.7,52.8,35.5,45.1,36.3,25.2,91,61,17,29.78,29.60,15,5,21,0.00
2013-5-24,69.7,53.1,35.5,36.9,27.7,20.6,89,44,17,29.85,29.66,18,6,27,0.00
2013-5-25,71.7,55.5,36.0,31.1,25.1,19.8,72,36,14,29.82,29.69,12,4,16,0.00
2013-5-26,71.9,58.2,38.1,30.1,24.2,18.8,56,29,16,29.73,29.60,13,4,18,0.00
2013-5-27,66.7,53.7,39.6,32.7,26.0,19.2,63,36,22,29.64,29.53,15,6,19,0.00
2013-5-28,65.9,51.0,34.4,35.3,28.4,20.4,66,43,26,29.63,29.44,16,4,21,0.00
2013-5-29,50.5,43.6,36.4,36.7,34.0,31.7,89,70,51,29.61,29.42,16,5,25,0.12
2013-5-30,53.4,43.5,36.3,33.0,27.2,19.3,84,55,29,29.79,29.53,19,9,41,0.01
2013-5-31,52.7,43.5,30.5,29.8,23.9,20.8,71,47,31,30.02,29.74,17,8,32,0.00
2013-6-1,59.4,46.9,37.6,37.8,31.7,28.0,76,57,32,30.11,30.02,19,6,26,0.00
2013-6-2,73.1,53.7,32.2,36.9,30.5,26.9,85,48,20,30.04,29.65,12,4,22,0.00
2013-6-3,70.3,56.4,41.0,36.9,27.2,16.0,52,34,18,29.76,29.50,16,6,23,0.00
2013-6-4,68.6,50.9,33.6,39.4,27.9,18.6,79,45,22,29.99,29.75,16,5,22,0.00
2013-6-5,63.3,48.6,39.6,41.1,34.1,22.2,82,61,21,29.98,29.91,11,3,21,0.00
2013-6-6,70.5,52.9,34.8,37.6,32.3,27.0,78,49,24,29.98,29.89,11,3,18,0.00
2013-6-7,71.1,55.4,39.3,43.0,37.1,33.4,84,53,26,29.95,29.61,12,4,15,0.00
2013-6-8,67.2,57.5,41.7,42.3,36.0,30.4,66,46,28,29.77,29.52,22,8,26,0.00
2013-6-9,79.4,58.4,38.4,41.0,34.5,28.3,75,45,19,29.86,29.69,15,4,21,0.00
2013-6-10,82.9,64.5,46.5,44.7,37.1,33.0,65,40,18,29.70,29.55,11,4,27,0.00
2013-6-11,76.5,67.6,53.5,34.0,29.4,22.7,44,25,16,29.68,29.49,14,9,20,0.00
2013-6-12,78.8,63.0,40.7,40.1,33.6,25.1,71,37,18,29.81,29.68,12,4,16,0.00
2013-6-13,76.8,67.7,52.0,42.1,34.0,26.4,56,30,21,29.78,29.52,13,7,27,0.00
2013-6-14,74.5,63.6,53.9,35.1,28.7,21.7,44,28,15,29.73,29.51,19,7,22,0.00
2013-6-15,74.0,57.5,35.8,35.6,27.3,16.4,70,35,15,29.84,29.73,12,3,17,0.00
2013-6-16,72.5,56.6,41.3,42.1,31.7,21.4,68,41,18,29.91,29.80,19,4,20,0.00
2013-6-17,74.7,56.6,40.0,46.0,37.8,26.9,81,53,19,29.91,29.81,17,3,19,0.00
2013-6-18,74.2,57.6,40.0,46.9,39.5,32.7,89,56,23,29.86,29.65,13,3,18,0.00
2013-6-19,78.8,60.9,39.1,43.7,31.6,19.1,88,43,13,29.68,29.46,13,4,22,0.00
2013-6-20,77.6,59.0,38.0,36.1,28.4,20.3,65,33,18,29.68,29.53,16,4,18,0.00
2013-6-21,75.4,58.7,38.0,44.2,30.2,22.8,77,40,15,29.68,29.62,15,5,21,0.00
2013-6-22,72.5,57.2,38.0,41.8,31.0,20.2,76,41,21,29.72,29.58,15,5,26,0.00
2013-6-23,74.3,59.4,37.7,38.7,29.4,20.3,73,35,17,29.75,29.58,17,5,20,0.00
2013-6-24,75.2,61.8,41.7,43.9,31.9,25.1,75,37,16,29.63,29.52,11,4,15,0.00
2013-6-25,70.4,59.5,45.5,44.4,36.9,30.5,61,44,31,29.80,29.53,15,5,22,0.00
2013-6-26,81.6,67.6,52.3,44.4,38.1,31.5,58,36,20,29.84,29.76,13,6,26,0.00
2013-6-27,84.3,68.7,51.0,46.3,38.3,32.6,60,35,18,29.90,29.81,15,5,25,0.00
2013-6-28,86.6,69.4,47.8,50.7,41.9,33.5,70,41,17,29.93,29.82,17,4,23,0.00
2013-6-29,81.6,65.4,48.9,54.5,47.3,40.5,85,57,24,29.87,29.75,16,4,19,0.01
2013-6-30,76.5,60.9,49.7,58.1,50.5,44.4,92,72,32,29.92,29.79,13,3,16,0.09
2013-7-1,76.0,58.2,44.1,56.6,47.8,42.3,96,72,32,30.02,29.92,16,3,21,0.08
2013-7-2,77.1,59.3,43.2,51.5,43.7,38.8,94,62,27,30.01,29.89,14,4,18,0.00
2013-7-3,81.6,62.5,43.6,55.3,42.3,36.4,86,52,22,29.89,29.70,22,6,25,0.06
2013-7-4,78.7,63.0,46.0,52.7,45.7,40.3,86,56,31,29.74,29.62,12,3,16,0.00
2013-7-5,77.2,62.5,51.3,55.1,49.1,44.9,88,64,36,29.66,29.52,19,4,26,0.00
2013-7-6,77.7,63.0,50.1,51.5,44.8,39.4,85,54,27,29.71,29.57,14,5,18,0.02
2013-7-7,82.6,66.0,48.2,50.2,43.2,35.8,80,46,20,29.73,29.65,20,5,23,0.00
2013-7-8,76.0,63.7,49.9,55.3,44.7,36.6,65,51,32,29.85,29.74,18,5,25,0.05
2013-7-9,81.1,67.0,54.4,52.7,42.3,37.2,62,43,22,29.88,29.81,19,6,27,0.00
2013-7-10,84.4,68.3,46.3,54.5,42.9,33.8,81,46,17,29.89,29.72,11,3,14,0.00
2013-7-11,87.8,69.4,49.7,55.3,44.1,36.3,82,48,17,29.74,29.50,12,4,14,0.00
2013-7-12,80.8,65.4,52.8,55.7,49.9,44.0,93,60,32,29.70,29.51,26,7,26,0.78
2013-7-13,76.3,63.2,52.3,55.7,52.3,48.9,93,70,44,29.88,29.72,13,3,21,0.00
2013-7-14,69.2,58.2,48.3,58.1,52.5,46.0,93,82,62,29.94,29.84,12,3,14,0.05
2013-7-15,75.6,60.3,48.3,58.1,52.7,46.7,96,78,49,29.94,29.74,11,2,13,0.00
2013-7-16,75.0,60.4,45.2,53.7,47.0,42.2,94,65,33,29.91,29.80,13,4,15,0.00
2013-7-17,81.3,64.8,45.4,57.3,49.7,41.9,92,61,38,29.91,29.78,19,3,20,0.00
2013-7-18,77.5,64.6,52.3,60.7,52.5,45.1,83,66,41,29.89,29.74,19,2,26,0.02
2013-7-19,76.5,59.9,46.7,60.0,49.8,43.6,91,72,40,29.90,29.75,13,2,15,0.02
2013-7-20,76.6,58.9,48.0,56.7,48.6,44.1,92,72,35,29.81,29.69,5,2,8,0.08
2013-7-21,82.5,66.6,47.5,51.8,37.2,23.4,90,40,15,29.72,29.60,17,6,23,0.00
2013-7-22,83.8,68.0,47.0,34.4,27.3,17.4,55,24,11,29.69,29.62,16,6,22,0.00
2013-7-23,83.9,69.6,50.8,53.4,33.2,19.4,77,32,11,29.73,29.64,13,5,20,0.00
2013-7-24,79.4,61.4,46.9,57.2,50.0,43.8,91,70,37,29.85,29.65,15,3,15,0.00
2013-7-25,74.1,57.7,47.2,54.4,49.4,44.7,94,76,43,30.06,29.80,18,3,20,0.09
2013-7-26,78.3,60.8,41.4,52.9,44.4,37.8,96,60,27,30.08,29.91,18,3,24,0.00
2013-7-27,76.9,61.6,48.7,52.6,44.4,37.7,90,56,31,29.91,29.66,14,3,16,0.01
2013-7-28,71.3,57.8,49.2,54.1,48.5,43.6,92,74,44,29.75,29.64,12,2,18,0.04
2013-7-29,67.5,58.7,51.6,50.8,43.1,36.5,73,57,37,29.94,29.68,16,6,24,0.00
2013-7-30,74.3,60.0,43.6,49.2,43.4,39.4,88,58,30,30.03,29.94,15,4,19,0.00
2013-7-31,79.0,63.6,45.9,48.8,43.3,39.1,80,51,24,30.04,29.85,15,4,16,0.00
2013-8-1,77.3,59.3,47.5,54.8,45.4,39.1,86,62,31,29.88,29.72,18,5,19,0.06
2013-8-2,78.4,66.5,56.2,49.9,43.2,38.2,62,45,26,29.75,29.69,19,7,27,0.00
2013-8-3,78.7,65.9,51.0,51.8,42.4,38.7,71,44,28,29.79,29.71,15,4,17,0.00
2013-8-4,78.1,66.4,59.0,51.8,43.4,35.7,69,45,24,29.79,29.72,19,8,25,0.02
2013-8-5,75.0,64.7,57.9,47.6,42.9,38.2,59,46,30,29.76,29.69,20,9,27,0.00
2013-8-6,77.4,64.8,49.7,48.6,40.3,33.4,73,43,21,29.75,29.67,19,8,26,0.00
2013-8-7,75.3,59.5,45.1,53.1,42.2,37.4,80,55,32,29.77,29.66,9,2,13,0.00
2013-8-8,70.0,53.0,42.2,49.8,42.2,36.4,89,69,37,30.01,29.77,15,2,18,0.20
2013-8-9,67.0,51.3,39.5,52.0,44.4,37.4,94,79,44,30.08,29.98,18,2,18,0.06
2013-8-10,75.0,58.3,41.4,51.4,40.4,32.8,90,56,26,30.10,29.94,15,4,22,0.00
2013-8-11,70.4,60.0,48.4,50.9,43.7,38.1,79,56,39,29.97,29.85,15,4,20,0.00
2013-8-12,73.5,54.1,41.8,49.1,42.8,37.0,93,69,31,30.04,29.93,19,3,25,0.49
2013-8-13,66.3,51.7,43.1,52.3,44.2,40.2,96,77,43,30.09,29.99,16,3,18,0.03
2013-8-14,74.9,56.9,38.7,51.9,39.0,33.3,93,57,25,30.11,29.95,16,5,17,0.00
2013-8-15,78.2,62.6,47.7,47.3,36.6,31.9,71,40,20,29.95,29.81,13,5,24,0.00
2013-8-16,80.0,60.4,44.2,53.5,42.1,35.8,80,55,22,29.94,29.86,9,1,9,0.00
2013-8-17,82.7,63.1,45.5,49.6,37.2,29.1,72,43,17,29.93,29.77,10,2,15,0.00
2013-8-18,79.6,67.3,51.4,50.7,40.6,31.3,59,38,26,29.82,29.73,19,7,24,0.00
2013-8-19,84.7,67.7,52.7,53.1,39.6,32.7,71,40,17,29.83,29.69,9,3,14,0.00
2013-8-20,81.3,63.5,52.1,51.3,41.0,30.6,65,46,23,29.80,29.69,17,3,23,0.00
2013-8-21,78.2,65.8,51.5,54.1,47.8,43.2,85,54,33,29.84,29.74,10,2,10,0.00
2013-8-22,75.2,58.2,47.8,55.9,48.9,43.2,90,73,36,29.95,29.83,11,2,13,0.02
2013-8-23,77.7,60.6,49.5,52.6,48.3,44.1,92,67,34,29.94,29.70,18,4,28,0.34
2013-8-24,74.0,59.2,47.2,51.9,47.3,43.8,92,67,38,29.88,29.74,16,5,20,0.00
2013-8-25,72.9,58.6,48.5,55.6,48.9,43.6,93,72,43,29.93,29.87,12,2,14,0.03
2013-8-26,73.6,63.1,50.0,54.0,50.3,48.1,94,64,45,29.92,29.85,12,6,19,0.00
2013-8-27,78.8,63.6,50.8,55.1,50.0,45.2,92,64,37,29.86,29.74,14,4,14,0.08
2013-8-28,79.9,60.0,48.3,61.9,52.4,46.1,94,78,40,29.94,29.80,9,2,15,0.26
2013-8-29,77.0,60.5,47.8,59.2,50.1,44.7,93,71,40,29.96,29.91,9,1,10,0.02
2013-8-30,76.9,63.4,52.0,61.1,50.3,44.4,83,63,44,29.97,29.83,16,2,16,0.07
2013-8-31,75.2,62.9,50.3,57.4,49.3,43.5,83,63,40,29.84,29.73,20,3,27,0.01
2013-9-1,77.5,60.1,44.3,56.5,48.1,41.0,90,67,36,29.90,29.80,10,2,14,0.00
2013-9-2,80.3,65.4,50.4,58.4,48.5,45.0,82,57,30,29.88,29.71,9,2,14,0.00
2013-9-3,79.9,64.1,49.9,53.5,48.9,46.1,88,61,33,29.86,29.77,9,2,14,0.00
2013-9-4,78.9,64.3,51.0,60.4,50.1,43.4,84,62,38,29.94,29.85,14,2,14,0.00
2013-9-5,80.6,61.3,51.4,57.7,50.7,45.0,90,71,36,29.93,29.86,9,2,11,0.06
2013-9-6,78.8,61.6,53.0,59.0,50.7,44.8,87,69,38,29.95,29.87,9,2,11,0.02
2013-9-7,79.0,62.1,48.4,51.7,47.0,42.8,88,60,33,29.90,29.79,19,4,27,0.06
2013-9-8,75.7,60.7,48.0,52.8,48.6,43.1,88,66,38,29.81,29.65,13,3,14,0.10
2013-9-9,59.2,53.1,48.9,52.7,48.8,46.7,93,85,73,29.86,29.66,12,2,14,0.11
2013-9-10,53.5,50.3,46.4,50.0,47.8,43.6,94,91,83,30.05,29.86,7,1,8,0.18
2013-9-11,54.0,51.9,50.1,52.6,50.5,48.7,96,95,94,30.09,30.02,9,3,11,0.23
2013-9-12,55.3,51.5,48.7,54.1,50.3,47.6,97,96,94,30.12,30.02,11,3,13,0.77
2013-9-13,64.0,53.8,49.0,55.2,50.0,47.4,96,88,61,30.01,29.72,8,1,9,0.74
2013-9-14,64.4,53.3,45.1,51.2,47.1,43.3,94,81,56,29.86,29.70,11,3,15,0.19
2013-9-15,51.6,48.2,42.7,49.4,46.6,41.4,96,94,91,30.07,29.85,10,2,11,0.09
2013-9-16,65.8,52.6,41.0,51.3,44.6,39.5,100,77,49,30.06,29.88,10,4,20,0.02
2013-9-17,70.2,58.0,47.7,46.6,43.3,35.6,85,60,31,29.91,29.61,15,7,25,0.00
2013-9-18,66.5,54.0,43.2,48.9,42.6,29.6,91,67,38,29.75,29.56,12,5,20,0.00
2013-9-19,56.7,46.6,30.6,36.2,25.3,18.3,74,45,23,30.07,29.75,17,7,20,0.00
2013-9-20,66.9,45.8,27.5,39.0,28.5,21.0,82,55,22,30.14,29.97,11,3,15,0.00
2013-9-21,69.5,58.1,43.2,39.6,33.6,26.5,73,41,26,29.97,29.59,15,6,30,0.00
2013-9-22,62.7,51.8,43.3,44.1,39.2,33.7,85,63,43,29.59,29.44,16,5,20,0.00
2013-9-23,51.9,44.4,35.6,38.8,33.4,29.2,78,66,47,29.99,29.41,24,7,30,0.00
2013-9-24,64.9,53.3,40.1,36.8,30.2,23.0,70,44,23,30.05,29.68,16,8,21,0.00
2013-9-25,68.3,56.2,40.5,33.6,27.3,18.3,72,34,21,29.68,29.26,17,9,27,0.00
2013-9-26,63.5,45.9,28.6,42.1,35.6,25.7,90,69,40,29.61,29.37,15,4,23,0.00
2013-9-27,43.1,37.7,32.3,40.1,31.8,22.6,93,79,67,29.92,29.56,17,5,31,0.14
2013-9-28,49.4,38.9,28.8,33.4,25.8,19.9,71,60,49,30.18,29.89,27,8,35,0.00
2013-9-29,58.9,49.2,39.8,29.1,24.8,20.6,58,39,29,30.11,29.75,17,9,22,0.00
2013-9-30,66.7,53.5,40.5,37.3,29.8,24.2,72,41,31,29.78,29.56,18,8,26,0.00
2013-10-1,67.7,50.6,33.5,37.8,31.9,29.2,85,53,25,29.90,29.74,11,4,16,0.00
2013-10-2,65.6,50.6,38.3,38.9,31.5,28.2,81,51,26,29.83,29.65,13,4,16,0.00
2013-10-3,60.4,46.0,31.6,38.9,32.8,27.8,90,62,31,29.67,29.49,14,5,19,0.00
2013-10-4,30.8,26.1,19.5,28.7,19.6,12.1,92,77,59,30.35,29.67,13,2,16,0.00
2013-10-5,38.8,30.8,19.7,20.7,15.3,12.2,78,54,36,30.44,30.32,35,19,41,0.00
2013-10-6,59.0,43.4,30.3,35.6,26.3,20.4,72,52,31,30.40,30.17,26,6,36,0.02
2013-10-7,66.1,48.7,30.1,31.6,24.9,19.8,76,43,18,30.17,29.84,16,5,23,0.00
2013-10-8,62.4,49.2,34.9,30.9,25.7,21.6,71,43,21,29.83,29.62,14,6,19,0.00
2013-10-9,54.7,41.6,31.8,40.5,33.2,26.1,91,74,47,29.87,29.71,11,2,13,0.04
2013-10-10,49.8,38.6,32.4,41.9,33.1,29.5,94,81,58,29.84,29.48,18,3,22,0.04
2013-10-11,39.4,35.0,32.7,32.2,29.2,25.1,92,80,67,30.07,29.48,14,6,21,0.22
2013-10-12,47.7,35.3,27.2,32.6,27.0,21.8,90,73,42,30.15,30.07,15,4,23,0.02
2013-10-13,56.1,40.1,26.5,36.0,30.2,24.2,92,71,37,30.16,29.86,14,3,19,0.04
2013-10-14,39.0,34.0,23.8,35.2,29.1,20.8,94,83,62,30.20,29.75,19,4,21,0.21
2013-10-15,29.8,25.5,20.2,22.2,19.6,14.4,90,78,68,30.34,30.20,10,2,14,0.00
2013-10-16,40.7,29.1,17.2,22.5,18.0,13.7,88,66,37,30.29,30.12,28,7,28,0.00
2013-10-17,39.3,31.9,26.1,27.9,22.9,19.2,91,70,48,30.16,30.01,28,4,37,0.09
2013-10-18,33.8,26.1,17.4,22.3,16.8,13.2,92,69,49,30.28,30.08,19,6,22,0.00
2013-10-19,48.0,37.7,28.6,24.8,20.4,16.5,61,50,38,30.26,29.89,34,13,47,0.00
2013-10-20,39.8,32.7,23.6,30.6,24.3,18.8,92,72,50,30.15,29.84,13,4,14,0.04
2013-10-21,43.7,34.7,21.5,26.2,22.6,17.4,84,62,47,30.29,30.16,17,6,25,0.00
2013-10-22,55.1,44.1,36.6,29.9,25.7,23.3,59,49,34,30.24,30.05,22,11,27,0.00
2013-10-23,58.0,45.2,30.5,28.7,24.5,20.2,74,46,24,30.09,29.99,14,6,20,0.00
2013-10-24,57.9,39.5,28.9,32.7,26.8,22.9,80,63,30,30.17,30.09,9,2,11,0.00
2013-10-25,59.9,44.4,31.0,27.9,23.3,21.3,75,46,24,30.18,30.08,12,4,17,0.00
2013-10-26,57.2,40.9,27.1,31.9,25.6,21.5,84,58,28,30.27,30.12,19,4,26,0.00
2013-10-27,53.9,43.6,30.4,25.2,22.1,16.8,69,44,25,30.12,29.75,20,6,26,0.00
2013-10-28,40.7,32.8,21.9,29.9,25.6,19.4,92,75,59,29.90,29.77,10,3,10,0.00
2013-10-29,45.3,31.2,18.9,29.1,20.7,15.7,91,68,39,30.01,29.90,22,4,43,0.01
2013-10-30,36.6,31.0,27.8,27.7,21.8,18.4,91,69,50,29.90,29.79,17,6,22,0.05
2013-10-31,34.4,29.2,26.0,24.9,20.5,15.9,86,70,61,30.03,29.82,35,16,46,0.09
2013-11-1,36.8,31.8,28.7,25.0,20.9,17.5,83,65,49,30.25,30.00,14,7,18,0.03
2013-11-2,52.2,40.2,24.0,22.0,16.9,9.7,77,42,21,30.27,29.77,17,8,28,0.00
2013-11-3,47.8,37.3,18.4,24.3,16.4,7.2,74,45,22,29.78,29.42,28,12,32,0.00
2013-11-4,34.0,23.3,16.4,18.3,10.3,1.1,87,59,38,30.11,29.77,15,6,23,0.24
2013-11-5,23.9,19.1,15.4,17.2,7.9,3.9,85,62,49,30.35,30.08,31,13,37,0.01
2013-11-6,30.1,25.5,18.6,20.4,16.2,7.0,81,68,60,30.48,30.34,24,13,45,0.02
2013-11-7,44.2,36.2,28.7,26.1,22.5,19.9,70,58,47,30.48,29.92,12,7,24,0.00
2013-11-8,44.9,40.8,35.2,24.1,21.1,18.1,61,45,40,29.94,29.73,26,12,45,0.00
2013-11-9,51.4,39.5,28.3,25.3,22.5,20.0,74,52,33,30.18,29.93,12,5,19,0.00
2013-11-10,53.0,39.8,27.7,24.0,20.5,17.4,72,48,26,30.23,30.14,15,4,21,0.00
2013-11-11,53.9,40.5,29.4,24.2,20.7,18.5,79,47,27,30.48,30.18,25,8,31,0.00
2013-11-12,55.3,37.3,23.9,27.6,20.1,8.6,83,54,23,30.57,30.41,13,2,13,0.00
2013-11-13,52.7,41.5,28.8,29.8,16.4,5.7,87,38,23,30.41,29.95,15,4,18,0.00
2013-11-14,42.5,35.7,29.9,29.5,20.5,11.6,89,56,34,30.01,29.74,21,11,32,0.00
2013-11-15,42.7,34.7,27.3,27.8,20.1,13.5,90,57,39,29.73,29.41,14,6,20,0.02
2013-11-16,30.3,26.6,22.5,23.4,19.3,15.8,85,74,63,29.58,29.25,20,9,34,0.08
2013-11-17,31.5,25.9,19.3,20.2,15.5,9.6,79,64,54,30.19,29.57,28,16,41,0.00
2013-11-18,45.5,34.2,25.1,20.2,18.4,15.3,72,53,31,30.27,30.06,29,10,33,0.00
2013-11-19,43.7,36.4,30.2,27.9,22.1,14.8,80,57,40,30.06,29.71,24,9,37,0.00
2013-11-20,41.5,34.8,30.5,25.9,23.6,21.2,77,64,49,29.88,29.74,25,10,39,0.00
2013-11-21,32.4,12.2,6.9,26.3,7.4,2.0,87,81,74,30.79,29.88,7,2,14,0.07
2013-11-22,31.9,14.6,2.5,11.5,3.5,-1.9,92,65,27,30.93,30.79,4,1,4,0.00
2013-11-23,28.4,19.0,7.7,18.9,11.0,-0.4,85,71,52,30.85,30.42,6,1,8,0.00
2013-11-24,37.4,26.7,19.2,25.7,18.3,2.1,88,72,33,30.42,30.13,8,2,11,0.00
2013-11-25,38.8,30.5,22.4,19.1,16.4,11.3,70,56,44,30.35,30.21,11,4,14,0.00
2013-11-26,42.3,29.2,17.6,19.1,15.1,11.2,78,57,36,30.50,30.35,14,3,25,0.00
2013-11-27,47.1,36.8,24.6,17.7,15.8,13.5,64,43,29,30.36,30.10,22,9,27,0.00
2013-11-28,49.3,32.8,24.2,23.1,18.1,14.1,70,56,32,30.18,30.08,10,1,12,0.00
2013-11-29,44.8,37.0,24.8,20.3,17.0,11.2,66,44,32,30.19,30.12,29,16,40,0.00
2013-11-30,42.0,34.5,30.1,20.5,17.7,14.6,57,50,39,30.20,30.11,26,10,32,0.00
2013-12-1,35.2,31.3,27.6,25.8,22.0,17.7,79,68,58,30.18,29.91,20,10,38,0.05
2013-12-2,35.4,32.7,31.0,26.4,24.0,21.0,76,70,63,29.96,29.55,16,9,32,0.08
2013-12-3,32.1,21.4,1.6,25.9,15.7,-3.1,88,79,68,29.74,29.46,12,4,17,0.26
2013-12-4,1.5,-6.0,-16.6,-3.5,-11.7,-21.9,81,76,67,30.49,29.71,6,2,11,0.11
2013-12-5,4.6,-7.3,-16.4,-7.0,-15.1,-22.2,78,68,54,30.59,30.47,10,2,14,0.00
2013-12-6,6.3,-3.9,-15.9,-4.7,-11.9,-21.7,80,68,52,30.67,30.57,8,2,12,0.00
2013-12-7,17.6,9.9,0.2,9.1,2.6,-5.6,89,72,58,30.59,29.90,16,3,21,0.00
2013-12-8,9.2,4.3,-0.9,2.3,-4.2,-11.7,84,68,51,30.27,29.87,27,7,38,0.00
2013-12-9,9.2,2.0,-4.5,-2.0,-9.9,-14.4,66,57,43,30.58,30.27,39,18,45,0.00
2013-12-10,16.7,13.9,8.5,11.8,5.4,-2.9,86,69,57,30.54,30.29,30,16,41,0.08
2013-12-11,27.8,20.4,12.6,10.6,6.5,2.7,68,55,45,30.58,30.44,24,12,34,0.00
2013-12-12,42.6,30.7,13.0,13.4,7.8,2.8,64,39,27,30.52,30.03,29,9,35,0.00
2013-12-13,32.4,26.3,12.5,11.2,8.0,5.2,76,47,32,30.27,29.85,28,13,33,0.00
2013-12-14,28.3,19.7,7.3,14.7,9.9,3.0,85,66,52,30.48,30.28,41,18,54,0.00
2013-12-15,38.9,30.8,22.3,17.6,15.5,13.0,70,54,40,30.43,30.24,38,18,52,0.00
2013-12-16,40.1,34.7,31.7,19.0,15.1,12.1,56,45,36,30.27,30.14,27,15,41,0.00
2013-12-17,44.9,36.3,27.8,17.7,13.0,9.5,47,38,31,30.37,30.11,15,8,27,0.00
2013-12-18,46.5,40.1,36.8,18.2,14.1,11.3,43,34,28,30.11,29.60,17,9,23,0.00
2013-12-19,45.0,30.6,9.6,26.3,17.0,4.9,83,59,36,29.74,29.42,18,6,28,0.00
2013-12-20,27.0,17.0,10.3,15.4,7.5,-2.9,86,67,41,29.86,29.73,34,6,37,0.02
2013-12-21,23.1,18.3,11.6,9.5,6.1,1.0,71,58,48,30.06,29.67,31,8,42,0.00
2013-12-22,20.4,17.8,10.9,15.3,10.6,3.1,82,73,60,30.33,30.06,17,7,29,0.08
2013-12-23,30.0,25.4,19.0,23.9,18.1,13.0,83,74,69,30.42,30.21,23,12,29,0.02
2013-12-24,32.0,24.3,15.8,24.4,17.1,6.1,87,74,64,30.40,30.07,26,9,31,0.18
2013-12-25,28.9,21.4,13.1,9.8,6.0,2.6,69,52,36,30.61,30.39,32,17,40,0.00
2013-12-26,36.0,28.5,18.3,15.7,9.9,1.7,54,45,34,30.49,30.36,33,11,37,0.00
2013-12-27,45.8,33.6,26.1,24.5,18.0,12.9,67,53,42,30.41,30.10,21,6,23,0.00
2013-12-28,36.8,28.8,14.8,19.5,16.2,10.2,87,61,37,30.17,29.90,23,5,27,0.02
2013-12-29,24.7,16.7,1.7,11.5,5.8,-2.3,86,64,45,30.37,30.15,31,9,32,0.00
2013-12-30,28.8,23.7,19.0,15.8,12.0,8.7,72,61,52,30.43,30.19,27,10,36,0.00
2013-12-31,32.3,28.5,24.6,24.1,21.3,14.7,92,74,57,30.20,29.95,28,12,44,0.18
2014-1-1,26.8,22.1,12.7,23.9,15.7,7.7,90,77,63,30.37,29.97,25,7,30,0.13
2014-1-2,34.2,26.5,15.4,17.2,12.0,6.4,68,54,41,30.42,30.15,32,11,37,0.00